Showing default

KSM1-C, 46906

Orbit data source: Space-Track

KSM1-C, 46906 is a payload satellite owned by Kleos Space (LU) in LEO that was launched on Sat, 07 Nov 2020 UTC via a PSLV-DL launch vehicle from the Sirharikota (SRI). Payload-class satellites include a variety of spacecraft equipped with specific instruments for various scientific and technological missions. These include communications satellites like Starlink; space stations such as the ISS; scientific satellites like the Hubble; Earth observation satellites from companies like Planet Labs, Umbra, and HawkEye 360; GPS; miniature CubeSats for education and research; and military/defense satellites.

Loading next visibility...
Identifier
46906, 2020-081B
Orbit
LEO
Country
Flag of UnknownUnknown / LUXE
Related business
Manufacturer
GOMSpace
Mission
Operational Commercial Sigint
Bus & Motor
CUBESAT 6U, Unknown motor
Mass
~10 kg wet, ~10 kg dry
Launch date (UTC)
2020-11-07 (5 years ago)
Launch vehicle
PSLV-DL
Launch site
Sirharikota (SRI)
Object type
Payload
Rocket body
Debris
Shape & HBR
Box, 0.1 m
Radar Cross Section
0.080 m², Small (<0.1 m²)

Expand to show TLE details & history
Last TLE update: 9 hours ago

TLE from 9 hours ago
0 KSM1-C
1 46906U 20081B   25243.12327927  .00012984  00000-0  59119-3 0  9997
2 46906  36.8940  41.2832 0004160 315.5778  44.4635 15.20078567264902
Epoch: 2025-08-31T02:57Z
TLE epoch observation values (Epoch: 2025-08-31T02:57:31.328Z)
Latitude
-0.00004°
Longitude
17.35487°
Altitude
502.669 km
Speed
7.616 km/s
True Right ascension
02h 45m 07s
True Declination
0° 00' 00"
Sunlit
Object was in full shadow at epoch
Visualization orbit readout
Latitude
Unknown
Longitude
Unknown
Altitude
Unknown
Speed
Unknown
Apparent Right ascension
Unknown
Apparent Declination
Unknown
Sunlit
N/A
Visualization observer readout
Local Sidereal Time
04:00:41
Azimuth
Unknown
Elevation
Unknown
Doppler factor
Unknown
Orbital elements
Apogee altitude
511.413 km
Perigee altitude
505.683 km
Semi-major axis
6,886.685 km
Eccentricity
0.00042
Inclination
36.894°
RAAN
41.2832°
Arg. of periapsis
315.5778°
True anomaly
44.4969°
Mean anomaly
44.4635°
Eccentric anomaly
44.4802°
Mean motion
3.79776 °/min
Orbital period
94.79 mins
BSTAR
0.00059119
Loading maneuver chart data...
Computing Atmospheric mass density...
Loading historical data...
Loading historical data...
Loading historical data...
Loading historical data...
Loading historical data...
Loading historical data...
Loading historical data...

Documentation

Showing up to 5 results
|